OPS 4682 DEB, 51765

Orbit data source: Space-Track

OPS 4682 DEB, 51765 is space debris in LEO originally from a launch on Sat, 03 Apr 1965 UTC launched from the Air Force Western Test Range (AFWTR). Debris objects in space refer to the collection of defunct objects orbiting the Earth. Examples of debris include non-operational satellites, rocket bodies, and fragments generated from explosions, collisions, or faulty payload assembly.

Loading next visibility...
Identifier
51765, 1965-027GW
Orbit
LEO
Country
Flag of USUS
Related business
Manufacturer
Unknown
Mission
Spacecraft
Bus & Motor
Unknown
Mass
Unknown
Launch date (UTC)
1965-04-03 (61 years ago)
Launch vehicle
Unknown
Launch site
Air Force Western Test Range (AFWTR)
Object type
Payload
Rocket body
Debris
Shape & HBR
Unknown shape, 1.1 m
Radar Cross Section
Medium (>0.1 m² and <1 m²)

Expand to show TLE details & history
Last TLE update: 5 days ago

TLE from 5 days ago
0 OPS 4682 DEB
1 51765U 65027GW  26232.61235324  .00000043  00000-0  11179-3 0  9994
2 51765  90.2491   2.8753 0031869  70.1023 304.6889 13.03744397600337
Epoch: 2026-08-20T14:41Z
TLE epoch observation values (Epoch: 2026-08-20T14:41:47.319Z)
Latitude
14.4614°
Longitude
173.41525°
Altitude
1,235.848 km
Speed
7.244 km/s
True Right ascension
00h 11m 14s
True Declination
14° 23' 01"
Sunlit
Object was in full shadow at epoch
Visualization orbit readout
Latitude
Unknown
Longitude
Unknown
Altitude
Unknown
Speed
Unknown
Apparent Right ascension
Unknown
Apparent Declination
Unknown
Sunlit
N/A
Visualization observer readout
Local Sidereal Time
19:25:51
Azimuth
Unknown
Elevation
Unknown
Doppler factor
Unknown
Orbital elements
Apogee altitude
1,268.865 km
Perigee altitude
1,220.28 km
Semi-major axis
7,622.709 km
Eccentricity
0.00319
Inclination
90.2491°
RAAN
2.8753°
Arg. of periapsis
70.1023°
True anomaly
304.38794°
Mean anomaly
304.6889°
Eccentric anomaly
304.53849°
Mean motion
3.26121 °/min
Orbital period
110.39 mins
BSTAR
0.00011179
Loading maneuver chart data...
Computing Atmospheric mass density...
Loading historical data...
Loading historical data...
Loading historical data...
Loading historical data...
Loading historical data...
Loading historical data...
Loading historical data...

Documentation

Showing up to 5 results
|